Theta_e
314 318 318 317 316 314 313 313 313 312 312 312 312 313 313 312 311 312 312 312 311 310 311 313 312 311 310 311 311 311 311 311 311 311 311 311 311 310 311 311 311 311 311 310 309 309 309 309 309 308 308 307 307 307 306 306 306 305 304 303 302 301 301 300 300 300 299 299 298 298 298 298 297 297 297 298 298 298 297 296 296 295 295 295 296 295
312 315 317 316 315 313 313 313 312 312 312 312 313 313 313 313 312 311 311 312 311 310 311 312 312 311 311 311 311 311 311 311 312 311 312 312 312 312 312 312 311 311 311 311 310 309 308 308 308 307 307 307 306 306 306 306 306 305 304 303 302 301 300 300 300 300 299 299 299 299 298 298 298 298 298 298 298 298 298 297 297 296 295 295 295 295
314 314 314 313 313 313 312 312 311 312 313 314 314 313 314 312 311 311 312 312 311 312 315 315 313 311 311 311 311 312 311 311 312 312 312 312 313 313 312 312 311 311 312 311 311 310 307 306 307 307 306 306 307 307 306 306 305 304 303 302 302 301 300 301 300 300 300 299 299 299 299 298 298 298 298 298 298 298 298 298 298 297 295 294 294 294
318 318 314 311 311 312 312 312 312 313 313 314 314 314 314 312 312 313 313 314 312 312 316 316 312 310 311 311 310 311 311 311 311 312 312 312 313 312 312 313 312 312 312 311 311 311 308 306 305 304 305 305 306 306 305 305 304 303 303 302 301 301 301 300 300 300 300 299 299 298 298 298 297 297 297 297 297 298 298 298 298 297 296 295 294 293
315 319 317 312 312 312 314 314 313 314 313 314 314 313 314 313 313 313 313 315 314 314 315 314 312 313 313 313 312 311 310 310 310 311 311 311 312 312 312 312 311 312 311 311 312 311 311 312 306 302 305 305 304 304 304 304 304 303 303 302 301 301 300 300 300 300 299 299 298 297 297 297 297 297 296 296 296 297 297 298 298 297 297 296 294 292
313 316 316 314 314 314 314 314 315 317 314 313 315 314 313 313 313 313 314 313 315 319 317 314 315 316 317 317 316 314 312 311 311 310 310 310 310 311 311 311 311 311 311 311 311 310 312 313 306 301 303 303 302 304 305 305 304 303 302 301 301 300 300 300 300 299 299 298 298 297 297 296 296 295 296 296 296 296 297 297 297 297 296 296 295 293
314 315 314 315 318 317 315 314 316 316 313 314 319 319 315 313 314 315 315 314 319 322 316 315 318 317 317 318 317 316 315 315 314 312 311 311 311 311 312 311 311 311 311 311 311 311 311 311 308 303 301 301 303 304 304 304 303 303 302 301 300 300 300 299 299 299 299 298 298 298 297 297 297 296 296 297 297 296 296 296 296 296 296 296 295 294
315 313 313 314 315 317 316 315 316 314 314 316 319 323 320 316 316 316 314 315 319 319 315 316 318 318 317 316 317 319 318 317 315 313 312 311 311 312 313 312 311 311 311 312 313 312 311 311 310 305 302 303 304 303 303 303 302 302 302 301 300 300 299 299 299 299 298 298 298 298 298 297 297 297 297 296 296 296 296 296 296 296 296 295 295 294
315 314 316 315 313 317 317 315 317 314 314 317 316 318 320 318 318 318 317 318 318 316 316 316 315 319 320 315 315 315 315 317 315 313 313 312 313 313 313 313 312 312 311 312 312 311 311 311 306 302 303 304 303 302 303 303 302 302 301 301 300 299 299 299 299 299 298 298 298 298 297 297 297 297 297 296 296 295 295 295 295 295 295 295 295 294
314 314 316 317 315 316 314 315 319 317 315 317 316 316 319 320 321 320 318 320 322 320 317 317 316 318 320 317 318 315 314 319 316 313 312 311 313 313 313 313 312 313 313 312 311 311 312 307 302 303 303 302 301 302 302 302 302 301 300 300 299 299 299 298 299 299 298 298 298 298 297 297 297 297 296 296 295 295 295 294 294 294 294 294 294 294
312 310 311 315 315 314 316 315 314 315 315 314 317 321 322 323 323 324 324 321 321 320 318 320 318 317 318 319 321 319 318 319 316 315 315 314 316 314 312 313 312 312 313 313 312 314 313 304 299 301 301 300 301 300 301 301 300 300 299 299 299 299 299 298 298 298 298 298 297 298 298 297 297 296 296 295 295 294 294 294 294 293 294 294 294 294
311 310 312 317 318 316 316 314 310 313 314 313 320 324 322 323 323 324 325 320 319 320 321 321 317 316 318 317 317 318 317 317 316 318 321 321 322 318 314 312 313 312 311 313 313 315 317 310 304 301 298 298 299 298 299 299 299 299 299 299 298 298 298 298 298 298 298 298 297 297 298 297 297 297 296 295 295 294 294 294 293 293 293 293 293 293
315 314 313 315 316 315 315 316 315 314 313 313 319 319 317 321 321 320 322 320 320 321 318 316 315 314 315 315 315 316 316 317 315 315 319 322 325 324 318 313 313 312 309 310 313 316 322 320 314 306 298 295 296 296 298 298 298 299 298 298 298 297 297 297 297 298 297 297 297 297 297 297 297 296 296 296 295 295 294 294 293 293 293 292 292 292
320 318 313 310 313 315 315 315 316 316 315 314 317 318 318 320 319 320 324 322 320 320 315 312 314 315 315 317 319 315 313 316 314 313 315 317 319 320 316 312 314 313 309 311 319 324 326 321 312 304 296 293 294 295 296 297 298 298 297 297 297 297 297 297 297 297 297 297 297 297 297 297 296 296 296 296 295 295 294 294 294 293 293 293 293 292
318 319 317 315 317 316 313 313 317 321 318 313 316 320 318 321 324 323 325 324 320 321 315 310 315 319 317 318 319 316 314 318 319 317 315 313 313 315 315 314 316 314 311 315 323 328 330 322 308 299 295 294 295 294 295 296 297 297 297 297 297 297 297 297 297 297 297 297 297 297 296 296 296 296 296 295 295 295 294 294 294 294 293 293 293 293
316 320 320 316 315 314 313 313 316 321 319 313 318 320 315 319 324 320 321 323 320 319 316 313 318 321 316 314 315 315 315 315 317 317 314 314 316 316 316 315 314 312 310 313 317 321 328 321 303 294 295 295 294 295 294 295 296 296 296 296 296 297 297 296 297 297 297 297 296 296 296 296 296 296 295 295 295 295 295 295 294 294 294 293 293 293
316 320 320 313 312 313 313 313 314 319 318 314 316 318 314 316 318 316 320 321 317 317 317 316 318 318 316 316 315 316 316 314 316 316 313 314 315 315 317 317 316 315 314 314 315 316 322 324 307 294 294 296 294 294 294 294 296 296 296 296 296 296 296 296 297 297 296 296 296 296 296 296 295 295 295 295 295 295 294 294 294 294 294 293 293 292
316 318 318 314 313 313 311 312 315 315 314 316 318 316 313 315 316 316 320 319 316 318 318 317 318 316 317 319 317 316 318 319 320 317 315 316 315 315 318 320 318 316 315 314 313 313 315 321 313 297 294 296 295 295 294 294 295 296 297 297 296 296 296 297 297 296 296 295 295 295 295 295 295 295 295 295 294 294 293 293 293 293 293 293 293 292
317 316 318 317 315 314 312 313 315 312 309 314 317 314 314 318 319 318 319 319 317 318 319 318 318 315 316 319 317 315 317 318 317 316 316 316 315 315 316 317 316 313 314 313 313 314 314 318 314 300 295 297 296 296 295 294 295 295 296 296 296 296 296 296 296 296 296 296 295 295 295 295 295 295 295 294 294 293 293 293 293 293 293 293 292 292
317 315 317 318 315 314 314 315 318 317 312 312 312 312 314 315 318 319 319 320 318 318 319 320 319 317 318 320 319 316 318 318 314 314 317 316 315 315 314 315 314 312 313 313 314 315 314 315 311 299 297 298 296 297 296 294 294 294 295 296 296 296 296 296 296 296 296 296 296 295 295 295 295 294 294 294 293 293 293 293 293 292 292 292 292 291
318 316 316 319 317 315 315 317 321 323 320 315 313 314 313 312 317 317 315 316 316 316 319 320 320 320 319 319 317 315 318 318 314 313 315 315 314 313 313 314 314 312 312 312 313 313 312 312 308 299 299 299 297 297 296 295 294 293 294 296 296 296 296 295 296 296 296 296 295 295 295 295 295 294 294 293 293 293 293 292 292 292 292 292 291 291
322 320 318 320 320 317 317 318 321 322 321 318 315 314 313 313 316 316 316 317 317 316 317 319 319 320 320 318 314 313 315 316 315 314 314 315 315 314 314 314 313 313 311 311 312 311 311 312 307 299 298 298 297 296 296 295 294 293 294 295 295 295 295 295 296 297 297 295 294 294 294 295 294 294 293 293 292 292 292 292 292 292 292 291 291 291
323 321 319 320 320 320 319 318 318 318 315 314 313 313 314 313 313 316 317 318 318 317 316 317 318 320 320 318 314 313 314 314 315 314 313 315 315 314 314 313 313 313 312 311 310 309 310 309 302 296 296 296 295 296 295 295 295 294 294 294 294 294 295 296 297 297 296 294 294 294 294 293 293 293 293 292 292 292 292 292 292 291 291 291 290 290
319 318 319 320 320 320 319 317 316 314 312 313 313 312 313 313 313 314 315 316 317 317 317 318 319 320 322 322 317 314 314 313 313 313 314 314 313 313 314 313 313 312 311 311 309 308 310 306 300 300 301 296 294 295 295 295 295 295 294 293 292 294 297 297 297 295 294 294 294 294 293 293 293 293 292 292 292 292 292 292 291 291 291 290 290 290
318 318 320 320 319 319 318 317 317 314 312 313 314 313 313 313 313 314 315 316 316 315 317 318 318 319 322 322 317 314 314 313 312 312 312 313 313 312 313 314 314 312 311 311 309 307 307 305 303 305 302 296 294 296 295 295 295 294 293 293 292 293 296 296 295 294 294 294 294 293 293 293 292 292 292 292 292 292 292 292 291 290 290 290 289 289
318 318 320 320 318 318 316 315 318 319 314 312 314 314 313 313 314 314 315 316 316 316 317 318 317 317 318 317 315 314 313 312 312 312 312 313 314 314 314 314 314 312 309 307 305 304 303 302 301 301 298 295 296 296 296 296 296 295 295 295 294 295 296 295 294 294 294 294 293 293 292 292 292 292 292 292 292 292 292 291 290 290 289 289 289 289
316 318 319 318 318 318 317 315 317 320 318 315 316 316 314 314 314 313 315 316 316 317 317 317 317 317 316 316 315 313 313 313 312 312 312 313 316 316 314 311 308 305 302 300 300 299 299 298 298 298 297 296 296 297 297 297 297 297 297 298 298 299 299 297 295 294 294 293 292 292 292 292 292 292 292 292 292 291 291 291 290 289 289 289 288 288
314 316 317 317 317 317 317 317 317 318 318 317 318 317 315 315 314 314 315 314 315 317 316 316 317 317 316 315 314 313 313 313 312 312 313 312 313 312 308 304 301 299 298 298 297 297 297 297 297 297 296 295 295 296 297 297 297 298 298 297 298 298 298 298 296 294 293 292 291 292 292 292 292 292 292 292 291 291 290 290 290 289 289 288 288 288
313 313 315 316 316 316 316 316 317 317 318 317 317 316 315 315 315 315 315 314 315 316 315 315 315 316 315 313 314 313 313 313 312 312 311 309 305 302 300 298 298 297 296 296 296 296 296 296 296 296 295 295 295 295 295 296 296 296 297 297 297 296 296 295 294 293 293 291 291 292 292 292 292 292 291 291 290 290 290 290 289 289 288 288 287 287
311 312 314 314 314 315 315 315 316 316 316 315 315 315 314 314 314 315 315 315 314 315 314 314 314 315 314 313 313 311 310 309 308 306 303 300 298 297 297 296 296 295 295 295 295 295 295 295 295 295 295 295 294 294 295 295 295 295 296 296 296 296 296 295 294 293 292 291 292 292 292 291 291 291 291 290 290 290 289 289 289 288 288 287 287 287
310 311 311 311 311 312 313 315 314 313 313 313 314 314 314 314 315 315 315 314 314 315 314 314 315 315 311 308 306 303 301 300 300 299 296 295 295 295 294 294 294 294 294 294 294 294 294 294 294 294 294 294 294 294 294 294 294 295 295 295 295 295 295 295 294 293 292 292 293 292 291 291 291 290 290 290 290 290 289 289 288 288 287 287 286 286
307 308 308 308 309 310 311 313 313 312 312 312 313 313 314 314 314 314 314 314 315 315 315 315 315 310 302 299 299 297 295 295 296 296 294 293 294 293 293 293 293 293 293 293 293 293 293 293 294 294 294 293 293 294 293 294 294 293 293 293 294 294 294 294 294 293 293 293 292 291 290 290 290 290 290 289 289 289 289 288 288 287 286 286 286 285
305 306 306 307 308 308 308 309 311 310 310 310 311 312 314 314 314 314 313 312 310 310 311 310 304 299 296 295 296 295 294 293 294 295 293 292 292 292 292 293 293 293 293 292 292 293 293 293 293 292 292 292 293 293 293 293 293 292 292 292 292 293 293 293 293 292 292 292 291 291 290 290 290 289 289 289 289 288 288 287 287 287 286 285 285 285
303 304 304 305 306 306 306 307 308 308 308 309 308 307 308 308 308 308 305 301 300 301 302 301 296 294 295 294 293 294 294 292 293 295 294 292 292 292 292 292 293 293 292 292 292 292 292 292 291 291 292 292 293 293 292 292 292 292 291 291 292 292 292 292 292 291 291 291 290 290 290 289 289 289 289 288 288 288 287 287 287 286 286 285 284 284
301 302 302 303 304 304 304 305 306 305 306 307 303 298 299 299 298 299 297 293 293 296 297 297 295 293 293 293 292 293 293 292 292 295 294 291 292 292 292 292 292 292 292 292 291 292 292 291 291 291 292 292 292 292 292 292 292 291 291 291 291 291 291 291 291 290 290 289 289 289 289 289 289 289 288 288 287 287 286 286 286 285 285 284 284 283
301 300 301 302 302 303 303 303 303 303 303 306 302 297 297 297 296 298 298 294 292 294 296 296 295 293 292 293 292 292 293 292 293 295 294 292 292 292 292 292 292 292 292 291 291 291 291 291 291 291 291 292 292 291 291 291 291 291 291 291 291 291 290 290 291 290 290 289 288 288 288 288 288 288 287 287 287 286 286 285 285 284 284 284 283 283
301 301 301 301 302 302 301 301 301 301 302 304 301 297 296 296 295 296 298 296 293 293 295 294 293 292 292 293 292 292 293 292 292 295 295 292 292 293 292 292 292 292 292 291 290 291 290 290 291 291 291 291 291 291 291 291 291 291 290 291 291 291 290 290 290 290 290 289 289 288 288 288 287 287 287 287 286 285 285 284 284 284 283 283 282 282
301 301 302 302 303 303 302 303 303 302 302 299 296 294 295 296 295 294 296 296 293 293 294 293 292 293 293 293 292 292 292 291 291 293 293 292 292 292 292 292 292 291 291 290 290 290 290 290 290 290 290 290 290 290 290 290 290 290 290 290 291 290 290 290 290 290 290 289 289 288 288 288 287 287 286 286 285 285 284 283 283 283 282 282 282 281
299 301 302 303 304 304 303 304 303 303 302 297 293 293 295 296 294 294 297 297 294 293 294 293 292 293 293 293 293 292 292 291 290 291 291 291 292 291 291 291 291 290 290 289 289 289 289 289 289 289 289 289 289 289 289 289 289 290 290 290 290 290 290 290 291 290 290 290 289 288 287 287 287 287 286 285 285 284 283 283 282 282 282 281 281 281
298 300 302 301 301 301 301 301 300 300 301 296 293 294 295 294 293 296 299 298 292 292 295 294 293 293 293 293 293 292 292 291 291 290 291 291 291 290 290 290 290 290 289 288 288 288 288 288 288 288 288 288 288 287 287 288 289 289 289 290 290 290 290 290 291 290 290 290 289 289 288 287 287 287 286 285 285 284 283 283 282 281 281 280 280 280
298 298 298 298 298 298 298 298 297 298 298 294 292 294 294 293 294 296 297 293 289 291 295 295 294 295 294 293 293 293 292 292 292 291 291 290 290 289 289 289 289 288 288 287 288 287 287 287 287 286 286 286 286 286 286 287 288 288 288 289 289 289 290 290 291 291 290 290 289 289 288 288 287 287 286 285 284 283 283 282 281 281 280 280 279 279
298 297 297 297 297 296 297 297 296 297 297 294 292 293 293 293 295 295 292 290 290 292 294 295 295 295 294 294 294 293 292 292 291 291 290 289 289 288 288 288 288 287 287 287 286 286 286 286 285 285 285 284 284 284 285 286 286 286 287 287 288 288 289 290 290 290 290 290 289 289 288 288 287 286 285 285 284 283 282 281 281 280 280 279 278 278
297 296 295 297 296 294 294 294 294 295 295 294 293 293 292 293 294 292 290 290 292 293 294 294 294 294 293 293 293 292 291 290 290 289 289 288 288 288 287 287 286 286 286 286 285 285 285 284 284 283 283 282 282 283 283 283 284 284 285 286 286 287 288 288 289 290 290 289 289 289 288 288 287 286 285 284 283 282 282 281 280 279 279 278 277 277
295 294 293 293 294 293 291 292 293 295 295 293 292 290 290 292 292 291 290 290 291 292 294 294 294 294 293 292 291 290 289 289 288 288 288 287 287 287 286 286 285 285 284 284 284 284 283 283 282 281 281 281 281 281 281 282 282 283 284 284 285 285 286 287 288 289 290 289 289 288 288 288 287 286 285 284 283 282 281 280 279 278 278 277 276 276
294 294 292 292 293 293 293 293 294 294 293 292 291 290 291 292 291 291 290 290 290 292 294 294 294 294 292 291 289 289 288 287 287 286 286 286 285 285 285 284 283 283 282 282 282 282 281 281 280 279 279 279 279 279 279 280 281 281 282 282 282 283 284 287 288 289 289 288 288 288 288 287 286 285 285 284 283 282 280 279 278 277 277 276 276 275
293 293 292 291 292 292 292 292 292 291 291 291 291 290 290 290 290 290 290 290 290 292 294 293 293 292 290 289 287 287 286 286 285 285 285 284 284 283 283 282 281 281 280 280 280 280 279 278 277 277 277 277 277 278 278 278 279 279 280 280 280 281 283 286 285 285 285 286 287 287 287 286 285 284 284 283 282 282 281 279 278 277 276 276 275 275
292 291 290 290 290 290 290 290 290 290 290 290 290 289 289 289 288 289 289 291 292 293 293 292 290 289 288 286 286 285 284 284 283 283 282 282 281 281 281 280 279 279 279 279 278 278 277 276 276 275 276 276 276 276 276 276 276 277 277 277 278 280 282 282 281 281 282 283 284 285 286 286 285 284 283 282 281 281 280 279 278 277 276 275 275 275
291 291 290 290 290 290 290 290 290 290 289 289 288 288 288 288 288 288 290 291 292 292 290 288 287 286 285 284 284 283 282 281 281 280 280 280 279 279 279 278 278 277 277 277 277 276 275 274 274 274 274 274 274 274 274 274 274 275 275 276 277 278 278 277 277 278 278 279 280 283 284 285 284 283 282 281 280 280 279 278 278 277 277 276 276 276
290 290 291 291 290 290 289 289 289 289 288 288 288 288 288 287 287 288 289 289 288 287 286 285 284 283 282 282 281 280 280 279 279 279 278 278 277 277 277 277 276 276 276 275 275 274 273 273 273 273 273 273 273 272 272 272 272 273 274 274 274 274 273 273 274 275 276 277 278 281 283 284 284 283 282 281 280 279 279 279 278 278 277 277 277 277
289 289 290 290 290 289 289 289 289 289 288 288 288 288 288 288 288 288 288 287 286 285 284 283 282 281 280 279 278 278 278 278 277 277 277 276 276 276 275 275 275 274 274 274 273 273 272 272 272 271 271 271 271 271 271 271 270 271 271 271 271 270 271 272 273 274 275 276 277 279 281 282 282 282 281 281 280 279 279 279 278 278 277 277 277 277
290 289 289 289 289 289 289 289 289 289 288 288 288 288 288 288 288 289 287 285 283 282 281 280 280 279 278 277 277 276 276 276 276 275 275 274 274 274 274 274 273 273 273 272 272 271 271 271 270 270 270 269 269 269 269 269 268 268 268 268 268 269 270 271 272 273 274 275 276 278 280 281 282 281 280 280 279 278 278 277 277 277 277 277 276 276
Wind_Speed
3 3 4 6 11 13 11 12 16 17 11 6 4 6 8 8 10 9 11 12 3 5 9 9 16 17 15 15 15 17 14 13 17 18 16 15 13 13 14 16 16 16 17 19 24 23 21 24 24 25 28 30 33 35 36 37 40 42 41 41 42 42 42 42 42 42 42 41 39 38 39 41 42 43 43 43 44 44 44 44 43 42 41 40 39 37
2 6 8 13 17 13 10 12 13 11 6 6 6 7 8 7 13 12 12 14 3 2 8 7 15 19 15 16 15 14 14 15 18 19 20 18 15 13 14 19 19 16 15 15 19 20 18 19 20 22 25 28 31 34 37 38 41 42 41 42 42 42 43 45 46 46 46 46 46 44 45 45 44 45 45 45 46 45 44 44 43 42 42 41 40 38
3 6 12 17 13 5 4 5 5 6 7 7 5 6 8 5 10 12 11 13 4 2 8 8 14 18 14 15 14 14 16 16 16 18 20 19 17 15 15 18 18 16 16 15 17 17 13 15 18 21 24 29 32 33 36 38 39 39 40 41 41 42 44 46 46 47 47 47 46 44 43 43 40 41 44 43 43 43 43 43 43 42 42 41 41 39
5 6 13 15 8 4 7 4 4 4 5 6 6 6 8 5 6 9 6 6 3 3 7 9 14 15 11 14 14 16 19 16 15 18 18 18 18 19 19 17 16 18 18 17 17 15 8 11 15 19 23 28 29 30 33 35 36 38 40 41 41 43 45 46 46 47 45 42 40 37 35 35 34 34 37 36 36 40 42 42 43 43 43 42 41 41
9 7 8 9 7 8 10 7 5 5 6 8 9 7 10 10 11 11 5 6 5 4 6 8 14 13 8 12 12 12 14 13 13 16 17 18 19 20 19 17 15 18 18 17 17 15 8 7 12 18 22 25 27 30 33 36 38 39 41 41 42 42 44 45 46 45 42 38 37 33 27 27 27 26 29 31 33 37 41 43 45 45 43 42 42 41
11 6 4 6 7 9 9 8 7 7 9 9 7 12 17 16 13 12 8 7 6 4 5 3 8 11 5 11 11 8 7 9 10 13 16 19 20 16 14 16 15 16 16 16 16 15 11 7 10 15 19 21 26 31 34 36 38 38 39 40 40 41 42 43 43 43 41 39 39 37 32 29 28 25 29 36 39 41 44 44 45 44 44 43 42 42
6 5 6 8 8 8 7 7 8 10 9 9 6 13 17 13 9 11 8 4 2 4 4 2 1 10 7 7 10 8 6 10 10 11 15 19 16 10 10 14 14 13 12 12 12 13 12 9 8 11 17 22 28 31 31 31 34 35 36 38 40 40 41 41 42 43 42 41 41 41 40 38 36 34 37 42 41 42 44 43 43 44 44 44 43 43
4 3 5 8 7 6 6 7 9 11 8 8 5 9 11 9 8 7 5 4 4 3 4 1 5 6 13 6 9 10 9 11 12 13 16 16 13 11 12 13 13 13 12 10 10 12 11 8 7 10 17 25 28 27 26 29 32 34 35 37 39 39 40 41 42 44 44 43 42 42 41 39 40 40 39 38 36 38 40 41 41 43 44 45 44 43
4 5 7 7 5 5 8 8 7 12 8 6 2 5 7 6 5 5 5 5 1 4 4 4 4 1 13 8 3 5 8 9 13 16 16 14 12 13 13 13 12 14 13 10 11 12 9 6 9 14 18 22 24 23 26 30 32 34 35 36 38 38 39 40 42 45 46 45 44 44 42 40 40 39 35 33 34 34 37 39 40 41 43 44 44 44
2 5 7 8 6 7 8 5 7 12 9 4 6 5 4 4 3 5 3 3 2 5 5 5 4 2 11 9 3 2 3 8 12 12 12 11 11 13 13 12 11 11 13 11 9 10 8 8 12 15 16 16 19 22 24 27 29 32 34 35 37 39 39 40 43 45 46 45 44 44 43 41 39 36 31 30 32 33 35 38 39 40 41 43 44 44
4 1 3 5 5 6 4 2 3 8 5 2 5 5 6 5 4 4 1 3 3 7 6 10 11 6 7 6 4 3 4 6 7 7 8 9 11 14 12 11 12 11 10 9 8 7 6 6 8 10 11 12 14 18 21 24 28 31 33 35 37 38 39 41 43 45 46 46 45 45 45 43 40 36 33 32 33 35 36 37 38 39 40 42 43 45
4 2 3 3 3 4 5 4 2 1 3 3 3 3 3 4 4 5 4 4 2 8 6 11 12 8 8 6 2 4 7 4 6 6 8 10 11 12 10 9 10 10 7 7 8 8 7 6 5 6 8 10 13 17 21 24 27 30 33 35 36 37 39 40 42 44 46 46 46 46 45 45 42 39 39 38 37 38 39 39 38 38 39 40 42 44
3 6 5 2 2 5 6 3 3 5 3 4 3 3 0 4 3 3 3 1 4 8 5 7 7 5 12 9 3 8 11 9 9 8 9 10 10 11 10 8 8 9 8 6 7 7 6 6 5 5 6 9 14 18 21 24 27 30 33 35 36 37 38 39 41 43 45 46 47 47 46 45 42 41 42 42 40 40 41 40 39 39 40 41 42 44
4 4 2 3 3 5 8 6 3 2 4 6 5 5 4 2 2 4 4 2 5 7 2 3 4 4 10 7 7 12 13 11 8 8 10 10 9 10 9 8 9 11 7 5 5 6 6 6 5 5 7 9 13 17 21 25 28 31 33 36 37 37 39 40 41 42 44 46 48 47 46 45 42 42 43 43 41 41 41 40 41 42 43 43 45 47
4 7 4 7 3 6 11 11 8 5 5 7 6 6 5 5 4 4 4 5 7 5 2 1 4 4 4 3 6 10 9 7 6 7 7 7 8 9 9 8 10 11 7 5 6 6 6 7 5 6 9 11 13 16 20 24 27 30 32 35 37 37 39 41 41 43 45 47 47 45 44 44 44 44 43 43 42 41 41 42 42 43 44 45 46 46
4 9 6 3 1 8 9 8 6 7 2 4 4 4 4 6 6 4 6 7 4 3 3 3 4 5 5 6 8 8 8 9 9 7 6 8 8 6 7 9 8 9 8 7 7 7 8 7 6 7 9 12 14 17 21 24 27 30 31 33 36 37 38 40 42 44 46 46 44 43 44 44 43 43 42 42 43 43 43 43 44 44 44 45 44 43
3 7 4 2 3 3 3 3 2 3 2 2 3 3 4 4 6 5 7 2 1 4 6 5 7 6 4 9 8 3 5 8 8 8 7 8 8 6 6 8 8 8 9 9 8 8 8 8 7 8 10 13 15 18 22 26 29 31 31 32 33 33 35 40 44 45 44 42 42 44 45 44 44 44 45 45 44 43 42 42 43 43 43 44 43 43
2 6 4 2 1 4 1 1 2 1 2 5 4 5 1 3 2 2 2 1 2 9 6 6 14 10 4 8 6 6 7 7 6 6 6 6 6 7 7 6 7 8 8 10 9 7 7 6 6 9 12 15 17 19 20 24 27 30 31 31 32 33 36 41 43 43 41 41 42 44 45 46 47 47 47 46 43 41 40 41 42 43 43 44 44 43
1 4 7 1 2 4 3 1 3 4 2 5 3 3 2 1 2 1 2 3 6 10 6 7 15 12 7 9 7 7 9 9 6 5 6 6 5 7 8 8 8 8 7 9 10 9 7 6 6 8 13 16 17 19 19 20 24 28 30 30 31 35 37 37 38 40 41 42 43 44 45 47 47 47 46 45 42 40 41 43 43 43 43 43 43 43
2 1 7 2 2 2 4 1 2 2 2 1 1 3 1 3 3 3 3 2 5 10 8 8 10 8 7 7 6 7 9 8 5 3 5 6 6 6 7 8 9 8 8 8 9 12 13 12 8 7 12 15 16 18 19 20 24 27 29 30 32 35 35 34 36 39 42 44 46 45 44 44 45 46 46 45 42 41 43 44 43 43 43 43 42 43
2 2 5 4 3 3 2 3 5 4 2 1 2 3 3 2 1 2 2 2 3 7 7 7 8 7 5 5 6 7 7 6 6 3 5 7 8 9 9 10 11 10 10 11 10 9 12 15 12 6 10 14 15 17 19 21 23 25 27 31 35 36 36 37 38 39 42 45 45 45 44 44 45 46 45 42 41 42 42 42 42 43 43 42 42 43
1 2 2 2 4 6 7 6 7 6 5 4 4 4 5 5 4 5 6 4 3 5 6 8 9 6 4 7 8 6 5 6 6 4 7 9 10 12 13 13 13 11 11 12 12 11 10 12 12 11 12 14 15 17 18 20 23 25 29 33 34 35 37 38 39 41 44 44 42 43 45 44 43 42 41 41 41 41 42 42 43 43 43 43 43 44
3 3 3 5 7 10 15 11 7 8 6 5 5 5 6 6 5 7 9 7 5 6 6 8 10 6 4 10 12 7 5 6 6 6 7 8 9 10 11 11 11 10 11 11 11 10 10 9 9 12 15 14 14 15 16 19 23 28 32 32 30 32 37 40 41 42 42 39 39 41 42 41 40 39 39 41 42 43 43 44 44 43 43 44 43 43
3 3 3 8 6 7 13 14 9 7 6 5 6 8 10 10 11 11 9 5 6 8 7 8 10 5 5 8 12 12 12 11 10 8 7 7 8 8 10 11 10 10 11 11 10 9 10 9 8 9 10 10 12 15 17 21 25 28 31 30 29 32 37 39 39 37 35 35 38 39 38 39 38 38 39 41 43 44 45 45 43 43 44 43 43 43
2 3 4 6 6 6 7 8 8 4 4 5 7 9 12 14 15 12 5 3 6 10 11 11 10 6 4 6 9 13 17 17 17 14 10 9 10 10 9 8 9 10 10 11 11 10 11 11 9 7 7 10 13 14 16 18 19 21 24 25 27 31 35 35 34 33 33 35 37 37 38 39 38 39 40 42 44 46 46 45 43 43 43 43 43 44
4 5 5 5 8 10 10 8 5 2 3 3 5 9 12 14 15 11 6 6 8 10 12 12 10 8 7 7 9 14 18 21 22 21 18 12 9 9 8 7 8 8 9 11 11 11 11 11 11 10 9 12 16 18 19 20 21 21 23 25 28 31 33 32 30 31 34 36 37 38 39 39 38 40 43 45 46 46 45 44 43 42 43 44 44 44
1 4 8 11 12 12 13 12 6 2 3 3 4 8 10 11 13 10 7 8 9 9 11 12 12 13 12 11 14 18 19 21 23 25 23 14 7 8 7 5 6 7 9 11 11 11 12 13 14 15 13 15 18 19 21 23 24 26 26 30 33 34 36 35 31 30 34 36 37 37 38 38 39 42 44 46 46 44 42 42 42 42 43 43 44 44
1 4 10 16 17 16 16 17 15 13 13 11 10 10 10 9 9 9 10 12 11 11 13 11 13 17 14 12 16 19 19 20 21 22 23 16 9 8 7 10 11 11 12 12 12 13 14 14 14 15 14 17 21 22 23 22 23 24 25 29 31 31 33 34 32 31 33 35 36 37 38 38 39 42 43 43 41 39 39 40 41 43 42 42 43 44
2 4 8 13 17 17 17 19 19 19 17 15 14 13 14 15 15 15 18 18 15 14 16 14 16 20 15 12 16 18 19 20 19 17 16 14 13 12 13 13 13 13 14 14 13 13 13 13 14 14 14 18 23 26 27 26 26 26 26 27 28 26 25 25 27 30 32 33 35 37 36 36 38 40 39 37 37 38 39 40 41 42 42 43 44 45
3 3 5 10 14 15 16 18 19 18 16 15 14 15 17 19 21 23 23 21 19 19 19 18 22 23 17 15 16 13 12 12 12 12 13 14 14 13 14 13 13 13 13 13 13 13 13 13 14 14 14 17 22 26 28 29 32 34 34 36 36 34 32 26 25 27 28 30 34 35 33 33 35 35 35 36 37 38 39 39 40 40 42 43 43 43
3 3 5 7 9 10 11 13 14 15 15 16 16 17 18 20 23 23 21 18 18 20 20 22 23 18 11 11 10 9 12 13 13 14 13 12 11 12 13 12 12 12 12 12 12 12 13 14 15 15 15 17 21 25 26 28 31 33 36 39 40 42 41 35 31 29 28 31 35 34 31 32 32 33 34 36 37 37 37 38 38 39 40 41 41 41
3 3 6 7 7 8 9 10 11 11 14 16 17 18 20 20 19 17 16 16 16 18 20 20 15 8 7 11 10 11 13 14 13 12 11 10 11 11 11 11 11 11 11 12 11 11 12 13 14 15 15 18 23 26 27 28 29 30 33 36 39 41 42 38 33 31 31 33 34 32 30 30 30 31 33 35 35 36 36 36 37 38 38 39 41 41
3 4 5 6 7 8 10 12 11 10 12 13 11 13 18 19 18 15 13 13 10 9 9 7 3 3 7 10 11 12 13 13 11 8 8 10 10 11 11 10 10 10 10 11 11 12 12 11 10 13 15 19 23 26 29 29 27 28 31 34 36 38 39 39 34 30 32 32 31 29 28 28 28 30 32 33 34 34 34 35 36 38 39 39 40 40
6 7 6 6 7 8 12 14 11 9 12 10 3 3 5 5 6 6 4 5 6 6 3 3 4 5 7 8 10 11 10 11 10 4 2 8 9 9 11 10 9 9 8 8 9 11 11 10 12 15 18 20 23 27 30 30 29 31 33 33 34 35 37 38 36 31 30 30 28 26 25 25 27 29 30 30 30 31 32 35 37 37 37 37 37 39
9 9 7 5 7 8 9 10 9 10 10 3 5 5 3 5 7 5 5 7 8 7 6 6 6 7 7 6 7 7 8 10 10 5 0 9 11 9 10 10 10 10 9 8 9 9 10 11 14 19 21 22 25 28 29 30 32 34 36 35 34 34 36 37 36 33 30 28 26 23 22 23 24 26 26 25 26 28 31 33 34 34 34 35 37 39
11 9 6 5 6 7 5 7 10 10 7 2 4 6 4 4 7 5 5 7 8 6 6 5 5 6 5 4 5 6 7 9 8 4 2 10 11 8 9 10 9 10 9 9 10 10 10 12 15 20 22 24 27 28 28 30 33 34 35 35 33 33 34 34 33 33 31 28 26 22 20 20 21 23 22 22 24 26 29 30 31 31 32 32 33 34
11 8 5 5 6 6 7 9 9 10 10 6 2 4 3 0 2 2 1 2 5 4 3 3 4 5 4 4 6 6 6 7 6 2 2 6 7 6 7 8 8 8 8 10 12 14 15 16 18 20 22 24 26 27 28 31 33 32 33 33 32 33 33 30 29 30 30 29 27 23 20 19 19 21 21 21 23 26 27 28 29 30 30 30 30 31
9 9 7 6 5 6 8 8 7 9 8 3 3 4 4 5 5 4 4 2 4 1 2 2 1 4 3 4 6 6 6 7 7 3 1 3 6 6 6 7 6 8 10 12 15 16 17 18 20 21 22 23 25 26 28 32 33 31 29 29 29 31 31 27 27 29 29 28 27 24 21 19 19 21 21 22 24 26 27 27 27 29 30 31 31 31
2 5 7 7 6 6 7 7 5 7 4 2 3 6 6 8 6 4 4 3 4 2 5 4 3 5 5 5 5 3 4 7 7 6 5 6 7 7 7 7 7 9 12 14 15 16 18 20 21 22 22 22 24 27 30 32 32 28 26 27 27 27 28 27 28 30 30 28 26 23 20 18 18 20 21 22 24 25 25 26 26 27 28 30 30 30
4 1 4 5 6 6 6 6 5 4 2 3 3 6 7 7 2 1 5 3 3 3 7 5 4 6 5 5 4 1 2 4 7 9 9 8 8 8 8 9 9 9 12 15 16 17 19 20 20 21 22 22 24 28 31 32 31 28 26 27 26 24 26 30 32 33 32 29 25 22 20 17 17 18 18 20 22 22 23 24 25 26 27 28 28 28
2 2 3 4 6 7 7 8 6 3 3 3 4 7 6 3 1 3 7 3 2 5 6 6 6 6 5 5 4 3 3 5 6 10 11 10 10 9 9 11 12 13 14 16 18 19 19 19 19 20 22 24 26 29 30 29 28 28 28 27 24 24 28 33 35 36 35 30 26 23 20 18 18 17 18 19 20 21 22 24 25 26 27 28 27 26
2 2 2 4 4 5 5 5 6 5 2 2 3 6 3 1 2 6 5 1 3 7 6 6 7 7 6 6 6 5 5 6 7 9 10 11 11 10 10 11 12 13 15 16 18 19 19 19 20 21 23 25 27 28 28 28 27 27 27 26 25 27 31 34 35 36 36 32 27 24 21 19 18 17 17 19 19 21 22 23 24 26 27 27 27 26
3 2 3 3 3 2 3 4 6 6 2 3 1 3 2 0 4 5 4 3 5 7 7 6 6 6 6 7 6 6 6 7 7 8 9 11 10 10 10 10 10 11 13 15 17 18 18 18 19 21 24 27 28 27 27 27 27 27 26 25 28 30 32 33 34 35 35 33 29 26 23 20 18 17 17 18 19 21 22 23 24 25 25 26 26 25
4 3 4 3 3 3 4 5 6 5 3 2 2 3 5 6 6 4 4 5 6 5 6 5 6 7 7 6 6 6 6 7 8 9 9 10 10 9 10 9 9 11 13 15 17 18 19 18 20 23 27 28 28 28 27 26 26 26 26 27 30 31 32 34 34 33 32 32 30 28 26 23 20 19 18 19 20 21 22 23 24 25 26 26 25 24
5 5 4 4 5 5 5 6 6 3 3 6 7 7 8 8 6 4 4 5 7 6 5 4 6 7 6 5 5 6 6 8 9 9 9 9 9 10 10 10 11 12 14 16 17 17 18 19 21 25 28 29 28 27 26 25 25 27 30 31 31 31 32 32 31 30 30 30 29 29 28 25 22 20 20 20 21 23 24 25 25 25 26 26 25 24
4 4 2 2 5 7 6 7 8 7 7 11 11 8 7 6 6 6 5 6 7 6 5 5 6 6 5 5 5 5 7 8 8 9 8 8 9 10 10 10 12 14 16 17 17 18 19 20 22 24 26 30 30 27 25 26 25 27 33 35 34 31 30 29 29 30 31 30 29 29 27 25 23 21 21 22 24 25 26 27 27 26 25 26 25 24
4 5 4 5 8 8 8 9 9 9 10 11 9 8 7 8 8 6 6 8 8 7 6 6 5 5 4 5 6 6 8 8 7 8 8 7 9 10 10 9 11 13 16 17 17 19 20 20 20 22 25 30 33 29 25 27 29 30 33 36 34 30 28 30 32 32 32 32 31 30 28 25 24 23 22 23 24 26 26 27 28 26 25 26 25 23
3 3 4 8 10 9 10 12 11 10 10 9 8 8 9 10 11 9 8 7 6 6 5 4 4 4 4 4 5 5 7 8 8 8 7 7 8 9 9 10 10 12 17 20 19 19 19 19 20 23 24 29 34 33 30 30 32 33 34 34 32 30 32 35 35 34 36 36 34 31 29 27 25 24 23 24 25 27 26 27 28 28 29 31 31 29
3 2 4 6 7 8 10 12 11 10 11 11 11 11 10 9 10 10 7 6 5 4 4 3 3 4 4 4 4 3 7 9 8 6 7 8 9 9 9 11 13 16 19 21 20 20 20 20 22 23 24 30 35 35 34 34 35 36 35 34 33 34 35 36 36 35 37 38 34 31 29 27 26 25 25 24 25 27 28 30 31 32 32 33 35 34
4 7 8 6 6 8 10 12 11 10 10 9 10 12 10 7 7 8 6 5 4 4 3 5 5 4 4 4 3 4 7 9 8 7 8 9 10 11 11 13 15 18 21 21 21 22 23 23 24 24 26 32 34 34 35 36 40 43 41 36 34 35 34 35 34 33 34 34 32 31 29 26 25 25 25 24 24 25 27 29 30 31 30 30 32 34
7 10 10 8 9 11 13 14 12 8 7 9 11 11 7 2 5 7 6 3 2 2 2 4 6 7 6 5 4 4 7 9 9 8 9 10 12 14 16 16 16 18 22 23 22 22 24 26 26 26 29 34 35 36 38 41 45 49 45 36 33 34 33 33 32 30 30 31 30 30 29 26 25 24 24 24 24 23 22 23 24 26 27 26 26 27
Wind_Direction
137 159 167 191 221 225 207 195 212 228 239 250 246 248 250 259 263 250 258 263 243 280 262 240 261 266 263 264 262 269 274 273 272 271 267 262 260 260 261 262 260 258 258 264 271 266 254 249 243 236 231 225 224 224 221 217 214 214 213 209 208 206 203 199 198 197 197 198 198 200 204 207 210 211 213 215 216 217 217 217 216 216 216 216 214 213
144 193 208 215 223 223 211 210 222 237 261 262 246 262 260 245 262 258 259 269 244 223 259 245 268 270 262 264 262 265 270 264 264 268 270 268 262 259 259 262 262 260 263 268 272 267 252 245 239 228 223 217 216 218 216 215 214 212 210 208 207 203 199 199 199 197 198 200 200 201 204 207 208 209 211 213 214 215 216 216 216 216 216 215 215 214
217 222 227 227 232 245 242 215 205 227 239 244 241 268 268 245 271 269 250 266 265 190 272 271 268 268 262 262 258 254 257 252 253 257 264 270 268 263 257 260 265 265 268 266 265 268 248 229 227 220 216 215 217 218 215 214 213 209 207 207 205 201 199 200 200 199 200 202 203 203 205 206 206 209 211 212 213 213 214 215 216 217 216 216 216 215
224 235 234 233 235 245 256 230 161 232 236 221 220 244 262 248 264 266 246 279 294 213 273 287 277 272 258 258 254 244 248 249 251 254 258 263 263 261 256 256 264 266 268 267 266 270 244 209 215 212 213 215 215 216 213 210 209 206 206 205 202 201 200 199 200 201 201 201 201 202 206 206 205 208 209 211 213 213 213 215 216 217 217 217 216 215
238 237 225 222 213 211 238 240 202 248 258 223 209 218 250 245 239 251 275 339 325 274 280 294 293 284 225 229 249 241 244 248 249 253 259 260 255 256 259 259 259 261 265 267 269 272 249 202 212 214 216 216 213 214 213 209 207 206 205 204 202 201 200 199 199 199 198 196 195 196 199 199 200 204 204 205 210 211 213 214 214 216 216 216 217 215
251 237 174 178 203 204 218 235 210 212 251 253 211 207 235 246 248 259 292 342 340 308 307 333 308 296 196 189 236 246 242 246 244 245 250 256 255 254 263 265 257 255 259 262 267 272 264 224 213 219 218 214 215 218 216 212 209 207 205 202 200 199 199 198 198 196 195 193 192 191 189 188 191 195 199 205 208 209 210 212 213 214 214 215 216 216
254 230 188 192 203 195 201 242 221 197 236 271 226 205 227 243 255 261 275 311 282 261 298 73 193 287 281 192 218 232 234 244 245 241 244 251 258 256 256 261 262 259 258 260 263 265 262 241 214 220 218 215 220 222 218 213 210 206 203 200 199 198 197 197 196 195 194 193 193 193 193 193 193 197 205 209 210 210 210 210 212 213 213 215 216 217
208 213 212 208 192 170 188 240 221 182 206 267 232 195 207 221 236 236 226 223 235 274 299 207 148 271 289 253 193 205 218 242 252 248 247 251 259 260 253 256 264 265 262 262 263 260 259 250 227 225 224 223 226 223 215 211 208 205 203 200 198 197 197 196 196 195 195 195 195 196 198 200 201 204 209 210 209 211 210 210 212 213 213 215 216 217
155 194 210 188 165 174 206 225 187 158 195 257 168 157 173 187 200 158 161 200 256 336 297 234 144 225 279 278 140 193 218 240 252 247 248 254 261 263 261 260 262 266 268 258 254 261 261 246 233 232 232 231 227 219 213 210 207 204 201 199 197 196 196 196 196 196 197 198 198 198 199 202 206 209 211 209 208 210 210 209 211 212 213 214 215 216
174 209 195 162 163 210 218 216 163 163 200 227 109 96 80 88 86 100 143 157 69 311 263 201 168 203 278 283 83 89 229 237 249 250 255 260 262 264 266 268 265 265 269 261 252 260 257 241 237 236 234 230 223 215 210 206 203 200 198 196 195 196 196 196 197 197 198 200 200 201 202 204 207 207 208 208 207 208 209 208 209 211 212 213 213 215
230 187 153 165 188 199 168 91 166 175 186 130 94 55 31 29 31 61 59 85 78 282 242 181 184 182 276 280 136 169 230 218 238 262 271 266 263 265 264 266 268 264 270 286 290 284 285 275 252 234 226 220 212 206 202 200 198 196 195 194 195 197 197 197 198 199 200 201 202 204 205 206 206 204 203 203 204 205 206 206 208 209 210 212 214 214
243 201 196 212 183 132 110 85 5 41 111 110 87 62 15 332 5 31 353 54 143 263 232 181 182 175 234 257 167 261 270 229 222 238 255 259 261 268 268 267 273 275 292 324 320 316 326 309 268 230 216 204 196 193 193 194 193 193 194 194 195 196 198 199 199 200 201 202 204 206 207 208 207 205 204 204 204 204 204 206 206 206 208 211 213 213
261 221 207 205 188 154 141 137 351 360 94 121 112 123 210 309 343 351 312 95 204 257 241 177 171 198 244 255 249 265 270 252 231 225 235 245 254 265 275 285 293 297 317 337 318 315 314 289 273 252 224 197 191 191 190 190 191 192 193 194 196 197 198 199 200 202 203 204 207 208 209 210 209 208 208 208 208 207 207 206 204 204 206 208 210 211
286 274 154 139 254 185 153 167 227 261 169 155 155 159 170 212 248 258 265 273 259 267 277 165 171 250 273 273 234 236 253 260 248 235 234 237 252 269 283 300 298 292 312 346 311 304 297 286 286 268 246 217 202 196 193 191 191 192 194 195 197 199 199 200 202 204 205 208 210 210 211 211 210 210 211 212 211 211 209 208 207 208 208 208 210 212
253 288 202 169 233 180 174 198 195 150 158 184 164 144 177 191 188 213 228 252 264 274 320 207 186 225 267 281 239 236 262 296 283 257 258 260 262 274 286 289 286 288 317 359 328 309 291 277 271 257 251 238 220 204 198 196 194 194 196 197 198 199 201 201 203 205 207 211 212 212 213 213 212 213 214 214 214 213 213 211 211 211 211 212 213 214
219 267 242 202 177 158 179 216 173 114 124 218 132 119 223 206 176 215 238 230 244 287 286 229 220 232 245 274 272 262 280 288 276 280 308 297 280 294 302 292 297 308 320 331 322 311 294 279 265 251 246 241 231 214 205 201 199 199 199 201 202 202 202 203 205 207 210 212 212 213 215 215 215 215 215 216 217 216 216 215 213 213 214 215 215 215
236 272 263 32 15 158 179 272 187 137 211 200 130 186 232 162 154 220 262 247 111 258 247 230 256 273 293 288 290 336 317 291 289 299 297 289 300 324 316 304 311 313 312 312 308 298 291 292 285 265 250 243 235 223 214 208 203 203 203 204 207 206 205 206 208 210 211 212 213 215 216 217 216 216 217 218 218 217 217 216 216 216 216 217 217 216
248 290 284 123 265 268 237 338 318 354 123 133 174 228 245 63 119 171 259 320 237 248 243 236 258 271 287 280 304 18 342 303 303 314 305 308 324 314 302 302 295 292 302 302 292 276 264 269 281 276 262 249 242 238 230 219 211 207 207 207 208 210 210 210 211 211 212 213 215 217 217 218 218 218 219 220 219 218 216 217 217 217 217 218 217 216
74 299 296 122 172 289 2 37 308 338 73 137 201 257 103 160 256 154 177 227 235 247 249 229 249 262 253 254 278 301 287 275 282 326 338 334 324 309 311 308 297 301 309 305 306 310 300 273 254 263 267 257 248 248 245 235 223 215 211 211 213 216 217 216 214 214 215 216 218 220 220 220 219 219 220 220 220 219 217 218 218 217 218 218 217 215
58 245 279 313 107 337 9 80 208 290 340 78 292 320 60 176 201 188 190 196 228 248 254 234 235 249 248 243 254 257 247 245 261 319 323 300 286 289 299 301 306 318 318 317 328 331 328 317 291 260 269 268 255 250 247 241 233 224 216 214 216 221 222 221 220 218 219 219 220 221 222 222 221 221 222 220 219 219 219 219 218 217 218 218 216 215
73 214 260 303 326 310 302 196 190 203 205 182 258 270 264 227 209 246 237 186 230 253 259 252 242 244 262 266 255 254 245 218 203 222 279 290 299 301 305 310 315 321 321 323 325 322 319 314 312 304 284 275 262 251 244 240 238 233 226 220 219 222 222 223 223 222 223 224 222 221 221 222 222 222 222 221 220 220 220 219 219 219 219 218 217 216
148 208 219 292 293 278 265 224 179 176 173 172 207 230 239 239 250 273 259 223 220 254 254 261 261 251 272 284 265 233 213 207 202 247 297 311 316 313 313 313 312 314 313 310 310 311 307 303 312 317 300 279 261 249 241 238 239 237 234 229 224 222 223 224 225 226 228 226 224 224 223 223 223 222 221 221 221 221 221 220 220 220 218 217 217 216
138 126 196 244 245 251 262 254 206 197 212 217 220 224 235 232 220 238 248 238 233 247 245 256 262 240 220 268 272 253 232 241 237 251 284 295 296 298 297 297 298 297 293 292 296 301 299 299 307 304 294 280 264 256 247 240 238 238 238 235 230 227 227 229 229 230 230 228 227 228 226 225 223 222 222 221 221 222 222 222 221 220 218 217 216 215
109 103 223 252 251 246 261 267 256 230 224 241 235 218 220 226 224 228 237 243 247 247 245 255 257 230 196 251 275 283 284 284 274 255 253 272 281 281 278 283 287 286 287 291 292 293 297 305 308 295 290 286 273 263 253 245 242 241 240 238 234 233 234 235 234 234 232 231 231 230 228 226 224 222 222 221 222 222 223 222 221 219 218 217 215 214
213 193 214 256 273 267 264 271 274 248 199 225 239 227 225 229 233 239 243 243 249 240 237 251 257 237 227 259 282 291 291 290 287 280 275 281 285 282 276 276 280 282 287 293 302 310 311 312 313 313 317 315 306 295 284 276 268 261 257 253 246 243 245 243 240 238 236 234 234 230 228 226 223 221 222 222 223 223 223 222 220 219 218 215 214 214
235 218 206 242 257 260 264 260 255 225 192 225 247 236 232 227 226 236 243 239 245 234 226 244 259 251 252 272 281 283 285 287 289 289 288 284 280 282 280 273 279 295 313 323 331 332 325 326 335 345 350 336 328 323 317 311 304 293 283 275 268 263 262 259 250 245 242 237 234 231 228 225 222 222 223 224 224 224 222 221 219 218 217 215 214 213
257 234 226 237 242 247 259 262 263 280 252 248 252 238 232 225 221 225 232 237 249 255 243 243 255 259 256 260 268 272 276 281 286 288 288 288 281 284 294 316 336 348 354 355 1 357 350 351 351 352 354 348 343 341 336 329 321 311 299 290 285 280 274 269 261 253 245 238 234 231 228 225 224 224 225 225 225 224 222 219 218 217 217 215 214 212
232 251 238 241 246 248 259 268 274 278 269 260 261 258 255 255 244 236 243 247 253 264 261 250 252 258 253 248 258 266 269 273 277 282 290 305 331 342 7 31 26 18 13 11 11 6 360 355 349 348 349 347 348 349 347 343 334 324 312 301 295 288 279 272 266 258 248 238 233 231 229 227 227 228 228 227 226 224 221 219 217 217 216 214 213 213
219 256 244 246 254 254 258 264 264 265 266 262 261 261 261 265 263 255 252 251 249 255 263 265 262 262 261 252 252 258 265 272 281 293 313 345 14 29 37 36 27 17 11 7 3 359 355 350 347 347 345 346 348 348 348 347 344 339 333 323 316 308 296 280 265 257 249 239 236 236 234 231 230 230 229 228 226 223 221 219 217 215 214 213 213 213
233 259 256 257 264 264 260 262 263 264 267 267 264 260 259 260 259 258 258 258 258 260 264 268 265 263 268 271 270 278 294 305 325 351 13 25 29 33 32 27 21 14 5 1 356 351 349 347 345 344 345 348 349 348 347 346 345 344 341 338 335 330 324 310 284 268 258 251 249 247 241 236 233 231 229 227 225 223 220 218 216 214 213 213 213 212
266 299 319 304 290 281 273 268 267 268 269 269 268 265 263 262 260 261 264 267 268 267 264 265 264 265 287 310 320 358 10 8 14 23 30 30 24 25 25 19 13 6 360 356 350 346 345 343 343 345 345 346 345 346 346 343 343 343 341 339 338 335 332 323 304 286 273 264 261 256 245 238 234 231 229 227 225 222 220 217 215 213 212 211 211 210
289 297 316 310 287 279 279 272 270 275 277 273 271 268 266 265 264 261 260 260 262 268 269 269 271 286 344 348 355 19 20 14 14 19 24 22 19 20 18 11 5 360 354 349 346 345 345 342 342 342 340 340 342 344 344 341 341 342 340 337 334 334 333 327 310 292 279 271 266 258 248 241 235 230 230 228 225 222 219 216 214 212 211 210 209 209
251 268 291 286 279 280 279 279 287 295 287 273 267 266 262 260 264 267 266 268 278 291 285 278 297 353 359 0 1 4 6 2 357 6 23 17 13 13 10 4 358 352 345 342 342 341 339 337 337 333 332 336 339 340 339 338 337 336 336 334 333 335 336 332 320 300 285 278 271 261 253 246 238 233 231 228 225 221 216 214 213 212 211 210 209 207
247 258 266 265 275 280 281 290 296 283 270 267 294 330 290 284 297 293 299 331 350 11 43 103 80 23 11 22 9 350 346 344 332 316 43 26 15 7 1 354 349 345 339 337 339 337 334 333 331 329 329 332 336 336 336 336 335 333 333 334 335 338 339 337 330 315 298 287 280 272 262 252 242 237 235 230 225 220 215 214 213 212 211 210 207 207
251 255 255 254 264 270 281 290 275 257 258 246 72 44 44 68 52 58 77 47 20 19 46 69 64 35 20 17 2 340 327 332 324 270 77 27 18 4 352 346 341 340 336 334 337 333 329 329 329 328 329 331 334 334 334 335 335 334 334 335 337 338 340 339 335 327 315 303 294 285 273 260 250 244 240 233 226 221 217 216 215 213 211 209 208 208
238 250 251 245 256 264 268 255 250 267 279 202 87 36 31 49 32 40 80 56 29 14 24 39 38 25 8 340 342 336 313 319 316 266 351 17 10 355 345 336 331 334 333 332 333 326 322 323 324 323 324 327 331 332 331 333 333 332 332 334 335 336 338 338 336 332 325 316 307 297 281 268 257 249 244 236 228 223 220 218 216 214 212 210 210 210
224 237 247 245 241 243 254 252 257 287 293 253 253 1 23 45 349 340 252 69 53 19 353 30 13 353 343 324 322 318 302 310 310 246 93 16 348 334 328 315 314 321 321 322 323 320 319 320 322 323 322 325 329 330 331 331 331 330 330 331 333 334 334 336 337 334 328 321 316 306 290 275 260 251 246 238 229 225 222 220 218 215 212 209 209 209
216 220 227 241 235 232 256 265 264 277 282 258 248 261 237 237 238 220 236 210 93 64 242 151 355 301 289 292 298 302 312 321 315 298 73 350 323 319 309 294 299 309 312 318 320 320 323 326 326 327 327 327 328 330 331 330 329 328 327 327 330 331 330 331 332 332 328 322 320 313 299 284 267 252 243 236 230 226 223 221 218 215 212 209 209 209
243 228 221 239 250 245 257 265 266 269 255 158 230 246 243 253 239 193 228 218 128 196 227 190 209 247 238 253 269 291 333 331 315 308 321 328 319 312 302 297 300 302 308 316 319 321 326 328 328 329 330 330 329 330 332 330 327 326 324 324 328 329 327 325 325 327 324 320 319 314 301 286 269 254 243 237 232 228 225 222 219 216 213 211 210 209
4 301 205 228 252 257 260 264 272 276 215 184 248 258 249 250 228 206 267 257 125 216 219 194 233 248 228 240 248 235 310 303 298 301 310 316 309 302 301 302 305 308 314 320 323 325 327 328 329 330 330 329 328 329 330 329 326 324 322 322 325 324 321 319 319 321 321 318 318 314 305 293 279 267 256 246 239 233 227 223 219 215 213 211 210 208
314 262 215 220 241 248 254 261 269 267 217 211 257 261 258 281 23 265 270 293 342 273 225 188 230 247 224 228 232 211 232 249 272 289 298 305 305 305 305 305 310 315 318 320 323 326 326 326 328 326 324 325 326 327 328 327 324 321 320 320 320 318 317 316 316 317 318 317 315 313 309 302 290 279 268 254 242 233 227 223 219 214 211 208 207 206
242 248 234 216 224 237 241 254 274 276 198 143 259 265 267 37 257 259 271 299 283 274 247 206 221 231 221 223 224 227 245 257 267 279 289 297 301 304 308 310 314 314 314 317 320 323 324 324 324 323 321 322 324 323 325 324 319 315 315 314 312 313 314 314 314 314 315 314 312 309 306 299 289 278 265 251 237 226 222 218 216 214 209 205 203 203
237 251 262 225 217 264 268 251 266 267 207 126 335 308 339 225 240 264 298 283 246 254 253 234 221 216 219 224 226 237 256 270 274 276 282 289 293 298 302 307 309 308 311 314 314 318 324 323 321 320 318 319 320 320 321 320 314 310 310 307 307 311 313 313 313 312 311 311 309 306 301 294 286 273 258 246 234 224 217 212 210 209 206 203 201 199
242 226 249 245 224 245 252 238 237 234 215 221 289 291 278 267 253 251 277 287 280 264 244 235 227 218 211 212 232 252 263 268 273 276 280 284 292 297 298 301 304 306 309 311 311 318 324 322 319 317 314 312 314 314 315 315 309 305 303 301 306 312 313 311 312 311 309 309 307 303 298 291 283 269 254 243 233 221 214 209 205 202 202 201 200 198
233 213 227 251 245 227 216 230 245 259 279 283 281 268 259 263 266 251 247 274 284 265 221 211 230 227 207 205 232 253 259 263 269 275 281 287 293 295 296 300 304 304 305 305 308 316 321 319 315 311 307 305 307 308 310 310 307 303 301 303 310 313 311 311 314 313 311 309 307 303 298 290 280 266 252 242 230 218 212 206 200 198 198 198 198 200
252 231 207 255 265 258 246 244 259 277 275 268 267 262 247 246 259 263 257 262 263 245 212 202 217 223 216 216 232 247 254 261 269 275 281 289 289 289 292 296 299 302 304 305 309 315 318 315 309 304 301 302 303 305 307 308 306 302 301 305 310 312 310 314 316 314 312 310 307 304 299 288 277 264 251 241 230 221 216 208 201 198 196 196 199 202
265 228 215 243 257 262 261 252 250 253 253 254 259 266 261 256 258 259 256 254 244 225 210 201 202 217 227 224 232 249 257 263 272 278 281 283 279 283 288 288 290 295 296 297 304 310 311 309 304 302 301 301 302 305 309 309 306 303 302 305 308 311 314 315 314 310 308 306 304 303 297 286 275 263 250 240 229 222 219 213 206 201 197 197 199 201
255 194 199 235 245 247 254 261 260 253 254 260 265 268 269 269 267 262 250 236 218 209 209 196 187 204 229 235 236 250 267 273 272 272 276 277 276 281 286 285 286 289 289 292 299 304 305 303 300 300 301 300 302 307 311 309 306 305 304 304 307 313 315 312 308 304 302 300 298 295 290 282 273 262 250 240 231 223 218 214 209 206 206 205 203 200
244 230 210 228 245 253 259 267 270 267 268 268 261 259 260 258 259 260 244 211 196 212 242 259 228 207 218 242 247 257 274 276 273 271 276 279 281 283 283 285 288 288 288 292 298 300 300 298 296 297 297 296 299 305 307 306 304 303 301 302 307 311 311 306 303 300 298 296 293 290 286 280 270 260 250 242 235 229 226 221 216 214 216 216 213 209
217 249 249 245 251 257 261 261 258 262 271 270 263 265 266 250 241 243 230 205 206 224 259 287 281 257 237 244 249 258 269 275 280 284 282 279 280 283 285 287 289 288 289 294 298 298 296 294 293 295 294 294 297 302 302 302 301 299 298 301 307 308 304 300 299 297 293 290 289 287 285 281 271 260 250 243 237 233 232 231 226 223 222 222 221 218
218 239 247 249 251 254 258 257 255 258 270 270 271 279 289 263 219 229 229 216 227 258 294 295 290 291 289 279 262 252 264 277 285 287 284 280 279 280 282 283 285 288 291 296 298 297 296 295 296 296 294 294 298 300 299 300 298 296 297 303 307 305 300 297 295 291 287 286 285 284 284 281 273 262 251 243 238 232 230 231 230 227 225 223 221 219